When you browse on this site, cookies collect data to enhance your experience and personalize the content and advertising you see.
Visit our Privacy Policy to learn more. By continuing to use the site, you agree to this use of cookies and data.
  • In France
  • List of Countries
  • For 7 days
  • Water Temperature
  • Weather Map
  • Weather Widgets
  • user-avatar
    Login

    Hourly Weather Weifang

    Today, 20 November, Wednesday

    Time Temperature Precipitation Wind Pressure Humidity
    00:00 +2°C° 0 mm 2 mps 770 mmHg 32%
    01:00 +1°C° 0 mm 2 mps 769 mmHg 32%
    02:00 +1°C° 0 mm 2 mps 769 mmHg 33%
    03:00 0°C° 0 mm 3 mps 769 mmHg 33%
    04:00 0°C° 0 mm 3 mps 769 mmHg 33%
    05:00 0°C° 0 mm 3 mps 769 mmHg 33%
    06:00 +1°C° 0 mm 3 mps 769 mmHg 32%
    07:00 +1°C° 0 mm 3 mps 769 mmHg 32%
    08:00 +2°C° 0 mm 3 mps 769 mmHg 31%
    09:00 +5°C° 0 mm 3 mps 769 mmHg 27%
    10:00 +8°C° 0 mm 3 mps 769 mmHg 24%
    11:00 +11°C° 0 mm 3 mps 769 mmHg 21%
    12:00 +12°C° 0 mm 3 mps 769 mmHg 20%
    13:00 +13°C° 0 mm 3 mps 768 mmHg 20%
    14:00 +13°C° 0 mm 3 mps 768 mmHg 19%
    15:00 +12°C° 0 mm 3 mps 768 mmHg 22%
    16:00 +11°C° 0 mm 3 mps 768 mmHg 25%
    17:00 +10°C° 0 mm 3 mps 767 mmHg 27%
    18:00 +9°C° 0 mm 3 mps 768 mmHg 28%
    19:00 +9°C° 0 mm 3 mps 768 mmHg 30%
    20:00 +9°C° 0 mm 3 mps 768 mmHg 31%
    21:00 +8°C° 0 mm 3 mps 768 mmHg 32%
    22:00 +8°C° 0 mm 3 mps 768 mmHg 33%
    23:00 +8°C° 0 mm 3 mps 769 mmHg 34%

    Tomorrow, 21 November, Thursday

    Time Temperature Precipitation Wind Pressure Humidity
    00:00 +8°C° 0 mm 3 mps 768 mmHg 36%
    01:00 +8°C° 0 mm 3 mps 768 mmHg 38%
    02:00 +8°C° 0 mm 3 mps 768 mmHg 39%
    03:00 +8°C° 0 mm 3 mps 768 mmHg 44%
    04:00 +8°C° 0 mm 3 mps 768 mmHg 49%
    05:00 +8°C° 0 mm 3 mps 768 mmHg 53%
    06:00 +8°C° 0 mm 3 mps 768 mmHg 54%
    07:00 +8°C° 0 mm 3 mps 768 mmHg 54%
    08:00 +9°C° 0 mm 3 mps 768 mmHg 55%
    09:00 +10°C° 0 mm 3 mps 768 mmHg 53%
    10:00 +12°C° 0 mm 4 mps 768 mmHg 51%
    11:00 +14°C° 0 mm 5 mps 768 mmHg 49%
    12:00 +14°C° 0 mm 5 mps 767 mmHg 48%
    13:00 +15°C° 0 mm 5 mps 766 mmHg 47%
    14:00 +15°C° 0 mm 5 mps 766 mmHg 46%
    15:00 +14°C° 0 mm 4 mps 766 mmHg 50%
    16:00 +14°C° 0 mm 4 mps 766 mmHg 54%
    17:00 +13°C° 0 mm 4 mps 766 mmHg 58%
    18:00 +12°C° 0 mm 4 mps 766 mmHg 62%
    19:00 +12°C° 0 mm 4 mps 766 mmHg 66%
    20:00 +11°C° 0 mm 4 mps 766 mmHg 70%
    21:00 +11°C° 0 mm 3 mps 766 mmHg 71%
    22:00 +12°C° 0 mm 3 mps 766 mmHg 71%
    23:00 +12°C° 0 mm 3 mps 766 mmHg 72%

    Day after tomorrow, 22 November, Friday

    Time Temperature Precipitation Wind Pressure Humidity
    00:00 +11°C° 0 mm 3 mps 766 mmHg 75%
    01:00 +12°C° 0 mm 2 mps 766 mmHg 78%
    02:00 +10°C° 0 mm 2 mps 765 mmHg 81%
    03:00 +10°C° 0 mm 2 mps 765 mmHg 84%
    04:00 +9°C° 0 mm 2 mps 765 mmHg 87%
    05:00 +9°C° 0 mm 2 mps 765 mmHg 89%
    06:00 +9°C° 0 mm 2 mps 765 mmHg 88%
    07:00 +9°C° 0 mm 2 mps 765 mmHg 86%
    08:00 +10°C° 0 mm 2 mps 765 mmHg 84%
    09:00 +12°C° 0 mm 3 mps 765 mmHg 75%
    10:00 +14°C° 0 mm 3 mps 765 mmHg 66%
    11:00 +17°C° 0 mm 4 mps 765 mmHg 57%
    12:00 +18°C° 0 mm 4 mps 764 mmHg 55%
    13:00 +19°C° 0 mm 5 mps 763 mmHg 53%
    14:00 +20°C° 0 mm 5 mps 762 mmHg 50%
    15:00 +19°C° 0 mm 5 mps 762 mmHg 54%
    16:00 +17°C° 0 mm 5 mps 762 mmHg 59%
    17:00 +17°C° 0 mm 4 mps 762 mmHg 63%
    18:00 +15°C° 0 mm 4 mps 762 mmHg 69%
    19:00 +14°C° 0 mm 4 mps 762 mmHg 76%
    20:00 +13°C° 0 mm 4 mps 763 mmHg 82%
    21:00 +13°C° 0 mm 4 mps 762 mmHg 84%
    22:00 +13°C° 0 mm 5 mps 762 mmHg 86%
    23:00 +13°C° 0 mm 5 mps 762 mmHg 88%

    23 November, Saturday

    Time Temperature Precipitation Wind Pressure Humidity
    00:00 +14°C° 0 mm 5 mps 762 mmHg 88%
    01:00 +14°C° 0 mm 5 mps 761 mmHg 89%
    02:00 +14°C° 0 mm 5 mps 761 mmHg 89%
    03:00 +14°C° 0 mm 4 mps 761 mmHg 90%
    04:00 +14°C° 0 mm 3 mps 761 mmHg 91%
    05:00 +15°C° 0 mm 2 mps 761 mmHg 92%
    06:00 +15°C° 0 mm 2 mps 761 mmHg 92%
    07:00 +14°C° 0 mm 3 mps 761 mmHg 91%
    08:00 +14°C° 0 mm 3 mps 761 mmHg 90%
    09:00 +16°C° 0.1 mm 3 mps 761 mmHg 89%
    10:00 +16°C° 0.1 mm 3 mps 761 mmHg 88%
    11:00 +16°C° 0.1 mm 2 mps 761 mmHg 86%
    12:00 +16°C° 0.2 mm 2 mps 761 mmHg 87%
    13:00 +16°C° 0.2 mm 2 mps 761 mmHg 88%
    14:00 +16°C° 0.2 mm 1 mps 760 mmHg 88%
    15:00 +16°C° 0 mm 1 mps 760 mmHg 89%
    16:00 +15°C° 0 mm 1 mps 761 mmHg 90%
    17:00 +15°C° 0 mm 1 mps 761 mmHg 91%
    18:00 +15°C° 0 mm 1 mps 761 mmHg 92%
    19:00 +15°C° 0 mm 1 mps 761 mmHg 92%
    20:00 +15°C° 0 mm 1 mps 762 mmHg 93%
    21:00 +15°C° 0 mm 1 mps 762 mmHg 94%
    22:00 +14°C° 0 mm 1 mps 762 mmHg 95%
    23:00 +14°C° 0 mm 1 mps 762 mmHg 96%

    24 November, Sunday

    Time Temperature Precipitation Wind Pressure Humidity
    00:00 +13°C° 0 mm 3 mps 763 mmHg 95%
    01:00 +13°C° 0 mm 4 mps 763 mmHg 94%
    02:00 +12°C° 0 mm 5 mps 763 mmHg 92%
    03:00 +12°C° 0 mm 5 mps 763 mmHg 89%
    04:00 +10°C° 0 mm 6 mps 764 mmHg 85%
    05:00 +9°C° 0 mm 6 mps 764 mmHg 82%
    06:00 +8°C° 0 mm 6 mps 765 mmHg 77%
    07:00 +8°C° 0 mm 6 mps 765 mmHg 72%
    08:00 +8°C° 0 mm 6 mps 766 mmHg 67%
    09:00 +6°C° 0.1 mm 7 mps 766 mmHg 67%
    10:00 +6°C° 0.1 mm 7 mps 767 mmHg 67%
    11:00 +6°C° 0.1 mm 8 mps 768 mmHg 67%
    12:00 +5°C° 0.2 mm 8 mps 768 mmHg 68%
    13:00 +5°C° 0.2 mm 8 mps 768 mmHg 69%
    14:00 +5°C° 0.2 mm 8 mps 769 mmHg 71%
    15:00 +4°C° 0 mm 8 mps 769 mmHg 66%
    16:00 +4°C° 0 mm 8 mps 770 mmHg 62%
    17:00 +4°C° 0 mm 7 mps 770 mmHg 58%
    18:00 +4°C° 0 mm 7 mps 771 mmHg 58%
    19:00 +3°C° 0 mm 7 mps 771 mmHg 59%
    20:00 +3°C° 0 mm 6 mps 772 mmHg 60%
    21:00 +3°C° 0 mm 6 mps 772 mmHg 59%
    22:00 +3°C° 0 mm 6 mps 773 mmHg 58%
    23:00 +3°C° 0 mm 5 mps 773 mmHg 57%

    25 November, Monday

    Time Temperature Precipitation Wind Pressure Humidity
    00:00 +3°C° 0 mm 5 mps 773 mmHg 56%
    01:00 +2°C° 0 mm 5 mps 774 mmHg 55%
    02:00 +2°C° 0 mm 5 mps 774 mmHg 54%
    03:00 +2°C° 0 mm 5 mps 774 mmHg 55%
    04:00 +2°C° 0 mm 5 mps 774 mmHg 55%
    05:00 +1°C° 0 mm 5 mps 774 mmHg 55%
    06:00 +1°C° 0 mm 5 mps 774 mmHg 55%
    07:00 +1°C° 0 mm 5 mps 774 mmHg 55%
    08:00 +1°C° 0 mm 5 mps 775 mmHg 54%
    09:00 +2°C° 0 mm 5 mps 775 mmHg 51%
    10:00 +3°C° 0 mm 5 mps 775 mmHg 47%
    11:00 +3°C° 0 mm 5 mps 775 mmHg 43%
    12:00 +3°C° 0 mm 6 mps 774 mmHg 41%
    13:00 +4°C° 0 mm 6 mps 774 mmHg 39%
    14:00 +4°C° 0 mm 6 mps 773 mmHg 38%
    15:00 +3°C° 0 mm 5 mps 773 mmHg 40%
    16:00 +3°C° 0 mm 4 mps 773 mmHg 43%
    17:00 +2°C° 0 mm 3 mps 773 mmHg 45%
    18:00 +2°C° 0 mm 3 mps 773 mmHg 47%
    19:00 +2°C° 0 mm 2 mps 774 mmHg 49%
    20:00 +2°C° 0 mm 2 mps 774 mmHg 50%
    21:00 +1°C° 0 mm 2 mps 774 mmHg 49%
    22:00 +1°C° 0 mm 2 mps 774 mmHg 48%
    23:00 +1°C° 0 mm 2 mps 774 mmHg 47%
    Show more